Location: Country View Observatory
(32.9873°N, 83.6444°W)
Time: 11:30:27
(UTC-04:00)

ISS - Pass Details

Date: 20 September 2019
Orbit: 411 x 421 km, 51.6° (Epoch: 20 October)

Event Time Altitude Azimuth Distance (km) Brightness Sun altitude
Rises 19:50:59 0° 221° (SW) 2,328 0.6 -4.3°
Reaches altitude 10° 19:53:04 10° 219° (SW) 1,469 -0.5 -4.8°
Maximum altitude 19:56:21 73° 134° (SE) 430 -3.8 -5.5°
Drops below altitude 10° 19:59:39 10° 50° (NE) 1,476 -1.4 -6.1°
Sets 20:01:44 0° 48° (NE) 2,340 -0.4 -6.6°
Enters shadow 20:01:45 - 48° (NE) 2,342 -0.4 -6.6°
